Location: Doughton Park
(36.4224°N, 81.1835°W)
Time: 11:39:02
(UTC-04:00)

Amateur Radio Satellites - All Passes

Search period start: 26 May 2015 11:09
Search period end: 27 May 2015 11:09
Location: Doughton Park, 36.4224°N, 81.1835°W

Satellite Date Start Highest point End Downlink Frequencies (MHz)
Time Altitude Azimuth
50 SAT 26 May 11:11:46 11:12:54 11° 90° (E) 11:14:15 437.505
BRITE-PL 26 May 11:18:10 11:19:51 11° 298° (WNW) 11:21:09 437.365/2234.400
PCSat 26 May 11:18:22 11:23:48 84° 62° (ENE) 11:29:14 145.827
RS-15 26 May 11:19:11 11:29:33 46° 312° (NW) 11:40:07 29.354- 29.394
GOMX 1 26 May 11:24:02 11:26:41 13° 296° (WNW) 11:28:59 467.674
ANTELSAT 26 May 11:26:30 11:31:12 72° 259° (WSW) 11:35:53 437.575/2403.000
NANOSAT C BR1 26 May 11:27:29 11:31:35 48° 74° (ENE) 11:35:45 145.865
CUBEBUG 2 26 May 11:30:46 11:35:06 50° 286° (WNW) 11:39:15 437.445
DELFI C3 26 May 11:34:17 11:38:12 52° 285° (WNW) 11:42:05 145.870
QB50P2 26 May 11:34:45 11:38:59 62° 75° (ENE) 11:43:14 145.880/145.840
ZACube-1 26 May 11:35:55 11:40:14 72° 284° (WNW) 11:44:25 437.345
HUMSAT D 26 May 11:36:48 11:40:50 48° 99° (E) 11:44:49 437.325/437.525
UKube-1 26 May 11:39:26 11:43:39 49° 100° (E) 11:47:53 .
DX 1 26 May 11:46:52 11:51:15 66° 101° (ESE) 11:55:37 434.975-435.025
POPSAT HIP 1 26 May 11:47:10 11:51:27 86° 78° (ENE) 11:55:47 437.405
DUCHIFAT 1 26 May 11:49:48 11:54:03 89° 82° (E) 11:58:22 145.980
Oscar 11 26 May 11:50:49 11:54:28 26° 289° (WNW) 11:58:02 145.826/435.025
Cosmos 2504 26 May 11:51:22 11:59:25 46° 283° (WNW) 12:06:54 435.465 / 435.565
VELOX 1 26 May 11:57:58 12:02:12 41° 98° (E) 12:06:27 145.980
ESTCUBE 1 26 May 11:58:02 12:01:42 24° 95° (E) 12:05:26 437.505/2401.250
CUBEBUG 1 26 May 11:59:09 12:02:30 21° 94° (E) 12:05:57 437.445
TIGRISAT 26 May 12:00:20 12:04:33 32° 264° (W) 12:08:42 435.000
JUGNU 26 May 12:03:58 12:06:52 14° 173° (S) 12:09:48 437.505
CINEMA 3 26 May 12:13:37 12:14:38 10° 296° (WNW) 12:15:22 145.822/145.860
BUGSAT 1 26 May 12:16:37 12:20:42 63° 259° (WSW) 12:24:54 437.445
UWE-3 26 May 12:20:52 12:23:54 18° 292° (WNW) 12:26:46 435.000/436.395/437.385
UNISAT 6 26 May 12:21:27 12:24:51 19° 267° (W) 12:28:05 437.425
HO-68 26 May 12:24:35 12:27:37 13° 304° (WNW) 12:30:13 435.675
AISAT 26 May 12:29:08 12:33:39 81° 284° (WNW) 12:38:07 437.250
QB50P1 26 May 12:32:04 12:35:46 28° 264° (W) 12:39:27 145.935-145.965
FUNcube-1 26 May 12:33:08 12:36:00 17° 292° (WNW) 12:38:40 145.935
POLYITAN 1 26 May 12:33:42 12:37:22 26° 265° (W) 12:40:59 437.675
CUSAT 1 26 May 12:33:53 12:39:02 22° 84° (E) 12:45:03 437.405
GONETS M04 26 May 12:41:11 12:47:09 22° 83° (E) 12:53:36
SPROUT 26 May 12:41:30 12:44:11 16° 92° (E) 12:47:01 437.525
50 SAT 26 May 12:44:14 12:47:54 41° 286° (WNW) 12:51:31 437.505
SO-50 26 May 12:45:39 12:50:23 44° 54° (NE) 12:55:03 436.795
Oscar 19 26 May 12:48:28 12:51:03 14° 65° (ENE) 12:53:55 437.125/150
PCSat 26 May 13:05:33 13:06:37 10° 256° (WSW) 13:07:15 145.827
NANOSAT C BR1 26 May 13:05:57 13:07:46 12° 270° (W) 13:09:20 145.865
TISAT 1 26 May 13:07:15 13:10:37 23° 94° (E) 13:14:04 437.305
HUMSAT D 26 May 13:14:24 13:16:12 12° 293° (WNW) 13:17:46 437.325/437.525
UKube-1 26 May 13:17:11 13:19:24 13° 294° (WNW) 13:21:26 .
SRMSAT 26 May 13:20:08 13:22:32 13° 171° (S) 13:25:01 437.500
DX 1 26 May 13:26:04 13:27:00 10° 295° (WNW) 13:27:40 434.975-435.025
ESTCUBE 1 26 May 13:34:41 13:38:32 27° 289° (WNW) 13:42:20 437.505/2401.250
CUBEBUG 1 26 May 13:34:59 13:38:54 30° 288° (WNW) 13:42:44 437.445
VELOX 1 26 May 13:35:34 13:38:28 17° 292° (WNW) 13:41:11 145.980
Gurwin Techsat 1B 26 May 13:36:00 13:37:05 11° 63° (ENE) 13:38:31 435.225
DANDE 26 May 13:38:06 13:44:39 53° 92° (E) 13:52:39 436.750
RS-15 26 May 13:39:32 13:46:04 16° 343° (NNW) 13:52:26 29.354- 29.394
JUGNU 26 May 13:51:54 13:55:07 15° 184° (S) 13:58:18 437.505
SWISSCUBE 26 May 13:55:24 13:57:37 13° 90° (E) 14:00:07 437.505
CUSAT 1 26 May 14:13:51 14:20:55 69° 282° (WNW) 14:29:10 437.405
SPROUT 26 May 14:16:26 14:20:26 36° 287° (WNW) 14:24:23 437.525
Oscar 19 26 May 14:24:46 14:29:56 65° 259° (W) 14:35:07 437.125/150
AO-7 26 May 14:25:17 14:28:02 12° 51° (NE) 14:31:21 29.400- 29.500
SO-50 26 May 14:27:00 14:30:39 20° 250° (WSW) 14:34:07 436.795
Cosmos 2499 26 May 14:32:20 14:37:24 19° 85° (E) 14:42:41 435.465 / 435.565
GONETS M04 26 May 14:34:28 14:43:17 71° 279° (W) 14:52:08
ITAMSAT 1 26 May 14:37:33 14:42:28 47° 72° (ENE) 14:47:27 435.822/435.867
TISAT 1 26 May 14:42:48 14:46:22 26° 289° (WNW) 14:49:50 437.305
SRMSAT 26 May 15:07:38 15:10:56 15° 181° (S) 15:14:15 437.500
Gurwin Techsat 1B 26 May 15:11:06 15:16:24 88° 253° (WSW) 15:21:46 435.225
ITUPSAT 1 26 May 15:14:34 15:19:23 89° 122° (ESE) 15:24:11 437.325
DANDE 26 May 15:22:14 15:28:25 30° 293° (WNW) 15:35:21 436.750
BEESAT 26 May 15:22:43 15:27:30 73° 284° (WNW) 15:32:14 436.000
HORYU 2 26 May 15:26:08 15:29:20 20° 69° (ENE) 15:32:40 437.375
SWISSCUBE 26 May 15:31:12 15:35:53 54° 286° (WNW) 15:40:31 437.505
KKS-1 26 May 15:37:12 15:40:55 26° 95° (E) 15:44:41 437.445
O/OREOS (USA 219) 26 May 15:46:36 15:50:28 29° 104° (ESE) 15:54:24 437.305
RS-15 26 May 15:58:06 16:04:57 17° 20° (NNE) 16:12:20 29.354- 29.394
CUSAT 1 26 May 16:02:00 16:05:32 13° 304° (WNW) 16:08:35 437.405
AO-7 26 May 16:11:19 16:19:26 64° 69° (ENE) 16:27:38 29.400- 29.500
JAS-2 26 May 16:18:26 16:25:18 74° 75° (ENE) 16:31:21 435.910
ITAMSAT 1 26 May 16:18:43 16:22:17 18° 268° (W) 16:25:38 435.822/435.867
Cosmos 2499 26 May 16:21:46 16:30:01 72° 279° (W) 16:37:39 435.465 / 435.565
GONETS M04 26 May 16:38:51 16:42:10 12° 302° (WNW) 16:44:43
STARS 26 May 16:42:21 16:46:48 89° 87° (E) 16:51:12 437.465
SRMSAT 26 May 16:57:18 16:59:20 12° 191° (S) 17:01:17 437.500
HORYU 2 26 May 17:01:42 17:05:47 33° 263° (W) 17:09:51 437.375
MOZHAYETS 4 26 May 17:02:32 17:05:27 17° 92° (E) 17:08:33
KKS-1 26 May 17:13:47 17:17:29 25° 290° (WNW) 17:21:06 437.445
O/OREOS (USA 219) 26 May 17:26:16 17:29:55 23° 300° (WNW) 17:33:28 437.305
AO-7 26 May 18:06:11 18:12:50 25° 266° (W) 18:19:13 29.400- 29.500
JAS-2 26 May 18:06:50 18:10:50 15° 269° (W) 18:14:13 435.910
BEESAT 3 26 May 18:09:36 18:13:13 32° 114° (ESE) 18:16:56 437.485
RS-15 26 May 18:10:10 18:21:18 50° 50° (NE) 18:32:58 29.354- 29.394
Cosmos 2499 26 May 18:22:49 18:24:40 11° 299° (WNW) 18:25:47 435.465 / 435.565
YUBILEINY 26 May 18:23:50 18:30:51 28° 69° (ENE) 18:38:07 435.215
CUTE-I 26 May 18:25:39 18:30:35 42° 72° (ENE) 18:35:36 437.470
Cosmos 2491 26 May 18:28:35 18:32:00 13° 79° (E) 18:36:10 435.465 / 435.565
MOZHAYETS 4 26 May 18:38:37 18:42:53 39° 287° (WNW) 18:47:06
CUBESAT XI-V 26 May 18:40:05 18:42:42 15° 91° (E) 18:45:32 437.345
AIST 2 26 May 18:45:27 18:48:16 18° 111° (ESE) 18:51:14 435.215
Cubesat XI-IV 26 May 18:45:45 18:50:59 67° 75° (ENE) 18:56:18 437.490
BEESAT 2 26 May 18:57:11 19:01:17 85° 298° (WNW) 19:05:27 435.950
HO-68 26 May 19:18:15 19:19:26 11° 55° (NE) 19:21:08 435.675
STRAND 1 26 May 19:46:16 19:50:46 31° 96° (E) 19:55:20 437.568
BEESAT 3 26 May 19:48:08 19:51:17 21° 310° (NW) 19:54:23 437.485
CUTE-I 26 May 20:06:51 20:10:53 21° 267° (W) 20:14:46 437.470
PRISM 26 May 20:13:27 20:17:36 72° 102° (ESE) 20:21:45 437.425
DOVE 4 26 May 20:15:27 20:18:46 18° 67° (ENE) 20:22:22 437.250
CUBESAT XI-V 26 May 20:15:55 20:20:26 47° 286° (WNW) 20:24:56 437.345
Cosmos 2491 26 May 20:18:56 20:27:43 83° 96° (E) 20:36:36 435.465 / 435.565
YUBILEINY 26 May 20:19:46 20:28:14 58° 268° (W) 20:36:38 435.215
AIST 2 26 May 20:22:37 20:26:35 37° 305° (NW) 20:30:36 435.215
RS-15 26 May 20:22:47 20:33:53 49° 249° (WSW) 20:45:12 29.354- 29.394
Cubesat XI-IV 26 May 20:29:11 20:31:41 13° 271° (W) 20:33:51 437.490
M-CUBED/EXP-1 PRIME 26 May 20:34:17 20:37:22 37° 104° (ESE) 20:40:30 437.505
AUBIESAT-1 26 May 20:42:46 20:45:55 41° 104° (ESE) 20:49:05 437.475
BRITE-PL 26 May 20:44:05 20:49:04 81° 78° (ENE) 20:54:31 437.365/2234.400
GOMX 1 26 May 20:48:37 20:53:35 58° 74° (ENE) 20:58:53 467.674
CANX-2 26 May 20:56:28 21:00:30 43° 74° (ENE) 21:04:34 2200.000
HO-68 26 May 20:58:57 21:06:00 65° 71° (ENE) 21:13:07 435.675
CUTE 1.7 + AOD 2 26 May 21:00:05 21:04:07 43° 74° (ENE) 21:08:10 437.475
Oscar 11 26 May 21:08:37 21:10:44 14° 68° (ENE) 21:13:03 145.826/435.025
AIST 1 26 May 21:12:44 21:16:53 56° 95° (E) 21:21:05
SEEDS 26 May 21:23:04 21:27:16 67° 76° (ENE) 21:31:28 437.485
STRAND 1 26 May 21:25:32 21:29:53 28° 291° (WNW) 21:34:09 437.568
CINEMA 3 26 May 21:31:43 21:36:30 51° 74° (ENE) 21:41:24 145.822/145.860
COMPASS 1 26 May 21:36:52 21:41:03 78° 77° (ENE) 21:45:14 437.405
UWE-3 26 May 21:38:21 21:42:00 23° 70° (ENE) 21:45:45 435.000/436.395/437.385
Cosmos 2504 26 May 21:46:37 21:53:37 53° 78° (ENE) 22:00:40 435.465 / 435.565
AAUSAT CUBESAT 2 26 May 21:49:18 21:53:29 87° 257° (WSW) 21:57:40 437.432
FUNcube-1 26 May 21:49:24 21:52:57 23° 70° (ENE) 21:56:36 145.935
DOVE 4 26 May 21:51:10 21:56:05 51° 262° (W) 22:01:14 437.250
DELFI C3 26 May 22:18:47 22:22:46 63° 76° (ENE) 22:26:45 145.870
Cosmos 2491 26 May 22:19:51 22:25:51 19° 296° (WNW) 22:31:24 435.465 / 435.565
CUBEBUG 2 26 May 22:25:29 22:30:15 86° 258° (WSW) 22:35:02 437.445
HUMSAT D 26 May 22:26:19 22:29:52 26° 71° (ENE) 22:33:28 437.325/437.525
ZACube-1 26 May 22:28:40 22:33:13 65° 76° (ENE) 22:37:47 437.345
GOMX 1 26 May 22:29:11 22:32:13 15° 272° (W) 22:35:04 467.674
UKube-1 26 May 22:32:02 22:35:47 30° 71° (ENE) 22:39:37 .
CANX-2 26 May 22:34:29 22:36:42 13° 269° (W) 22:38:42 2200.000
CUTE 1.7 + AOD 2 26 May 22:38:02 22:40:17 14° 269° (W) 22:42:19 437.475
DX 1 26 May 22:40:00 22:44:04 40° 72° (ENE) 22:48:11 434.975-435.025
Oscar 11 26 May 22:42:22 22:46:33 47° 261° (W) 22:50:45 145.826/435.025
HO-68 26 May 22:49:00 22:54:19 21° 268° (W) 22:59:20 435.675
VELOX 1 26 May 22:53:26 22:57:08 27° 71° (ENE) 23:00:57 145.980
CUBEBUG 1 26 May 22:54:13 22:56:19 14° 67° (ENE) 22:58:36 437.445
ESTCUBE 1 26 May 22:56:08 22:58:59 17° 68° (ENE) 23:02:00 437.505/2401.250
CINEMA 3 26 May 23:10:53 23:14:02 16° 270° (W) 23:17:00 145.822/145.860
ISS 26 May 23:11:00 23:13:33 22° 131° (SE) 23:16:11 145.825
UWE-3 26 May 23:14:11 23:18:22 31° 264° (W) 23:22:31 435.000/436.395/437.385
CUSAT 1 26 May 23:17:12 23:19:59 13° 56° (ENE) 23:22:57 437.405
ANTELSAT 26 May 23:21:49 23:25:30 27° 95° (E) 23:29:12 437.575/2403.000
AISAT 26 May 23:24:12 23:28:35 65° 75° (ENE) 23:33:01 437.250
QB50P2 26 May 23:24:40 23:26:22 12° 90° (E) 23:28:17 145.880/145.840
FUNcube-1 26 May 23:25:04 23:29:08 30° 264° (W) 23:33:09 145.935
50 SAT 26 May 23:25:47 23:29:47 73° 77° (ENE) 23:33:46 437.505
POPSAT HIP 1 26 May 23:36:08 23:38:51 17° 92° (E) 23:41:42 437.405
DUCHIFAT 1 26 May 23:38:14 23:41:01 17° 93° (E) 23:43:54 145.980
Cosmos 2504 26 May 23:41:08 23:46:34 23° 274° (W) 23:51:44 435.465 / 435.565
TIGRISAT 26 May 23:54:18 23:58:39 65° 101° (E) 00:02:53 435.000
TISAT 1 26 May 23:58:22 00:00:21 13° 67° (ENE) 00:02:33 437.305
BUGSAT 1 27 May 00:01:59 00:05:19 22° 94° (E) 00:08:42 437.445
HUMSAT D 27 May 00:02:01 00:05:34 24° 265° (W) 00:09:00 437.325/437.525
UKube-1 27 May 00:08:44 00:11:59 20° 266° (W) 00:15:07 .
ZACube-1 27 May 00:09:05 00:10:04 10° 272° (W) 00:10:43 437.345
UNISAT 6 27 May 00:14:39 00:19:01 69° 284° (WNW) 00:23:16 437.425
PCSat 27 May 00:16:50 00:19:43 15° 106° (ESE) 00:22:53 145.827
DX 1 27 May 00:17:56 00:20:33 15° 268° (W) 00:22:59 434.975-435.025
QB50P1 27 May 00:19:03 00:23:16 56° 100° (E) 00:27:26 145.935-145.965
POLYITAN 1 27 May 00:20:55 00:25:10 60° 100° (E) 00:29:22 437.675
DANDE 27 May 00:24:15 00:31:22 39° 70° (ENE) 00:37:10 436.750
CUBEBUG 1 27 May 00:28:05 00:32:18 48° 261° (W) 00:36:32 437.445
VELOX 1 27 May 00:30:06 00:33:41 23° 265° (W) 00:37:12 145.980
ESTCUBE 1 27 May 00:31:24 00:35:35 39° 262° (W) 00:39:47 437.505/2401.250
ISS 27 May 00:46:57 00:49:53 30° 326° (NW) 00:52:49 145.825
GONETS M04 27 May 00:48:06 00:56:37 53° 77° (ENE) 01:05:06
NANOSAT C BR1 27 May 00:50:29 00:54:43 61° 285° (WNW) 00:58:54 145.865
CUSAT 1 27 May 00:57:10 01:04:20 88° 79° (E) 01:09:46 437.405
QB50P2 27 May 00:58:28 01:02:35 47° 286° (WNW) 01:06:39 145.880/145.840
ANTELSAT 27 May 00:58:45 01:02:11 22° 290° (WNW) 01:05:28 437.575/2403.000
SWISSCUBE 27 May 01:00:31 01:02:24 13° 65° (ENE) 01:04:32 437.505
SPROUT 27 May 01:07:29 01:11:46 67° 259° (WSW) 01:16:06 437.525
POPSAT HIP 1 27 May 01:10:57 01:14:52 35° 288° (WNW) 01:18:43 437.405
DUCHIFAT 1 27 May 01:13:04 01:16:56 33° 288° (WNW) 01:20:45 145.980
TISAT 1 27 May 01:31:41 01:35:47 46° 261° (W) 01:39:53 437.305
TIGRISAT 27 May 01:34:17 01:34:53 10° 295° (WNW) 01:35:13 435.000
BUGSAT 1 27 May 01:37:09 01:40:45 26° 289° (WNW) 01:44:17 437.445
QB50P1 27 May 01:57:08 01:58:42 12° 294° (WNW) 02:00:02 145.935-145.965
PCSat 27 May 01:57:19 02:02:40 62° 299° (WNW) 02:08:04 145.827
O/OREOS (USA 219) 27 May 01:58:36 02:02:45 37° 64° (ENE) 02:06:54 437.305
POLYITAN 1 27 May 01:59:26 02:00:36 11° 294° (WNW) 02:01:32 437.675
DANDE 27 May 02:07:45 02:14:28 34° 273° (W) 02:19:48 436.750
VERMONT LUNAR 27 May 02:10:24 02:13:28 42° 153° (SSE) 02:16:32 437.305
Cosmos 2499 27 May 02:16:26 02:22:31 31° 73° (ENE) 02:28:49 435.465 / 435.565
ITUPSAT 1 27 May 02:18:45 02:23:29 78° 77° (ENE) 02:28:17 437.325
BEESAT 27 May 02:26:31 02:31:16 85° 257° (WSW) 02:36:04 436.000
BEESAT 3 27 May 02:32:10 02:33:28 11° 44° (NE) 02:34:56 437.485
KKS-1 27 May 02:33:37 02:36:38 19° 68° (ENE) 02:39:48 437.445
SWISSCUBE 27 May 02:35:05 02:39:47 63° 259° (W) 02:44:30 437.505
PHONESAT 2.4 27 May 02:38:12 02:40:49 20° 147° (SSE) 02:43:28 2401.200-2431.200
Oscar 19 27 May 02:38:59 02:44:02 55° 100° (E) 02:49:04 437.125/150
CUSAT 1 27 May 02:43:24 02:45:36 11° 282° (WNW) 02:47:12 437.405
GONETS M04 27 May 02:45:44 02:53:06 30° 274° (W) 03:00:10
ITAMSAT 1 27 May 02:53:41 02:57:29 21° 93° (E) 03:01:26 435.822/435.867
SO-50 27 May 02:58:20 03:02:00 24° 111° (ESE) 03:05:53 436.795
BEESAT 2 27 May 03:19:11 03:22:39 26° 52° (NE) 03:26:07 435.950
Gurwin Techsat 1B 27 May 03:30:03 03:35:08 46° 98° (E) 03:40:15 435.225
STARS 27 May 03:36:31 03:40:50 56° 75° (ENE) 03:45:14 437.465
O/OREOS (USA 219) 27 May 03:38:55 03:41:54 17° 258° (WSW) 03:44:44 437.305
VERMONT LUNAR 27 May 03:47:31 03:50:40 49° 348° (NNW) 03:53:48 437.305
MOZHAYETS 4 27 May 04:03:21 04:05:18 13° 67° (ENE) 04:07:29
BEESAT 3 27 May 04:07:56 04:11:59 70° 241° (WSW) 04:15:57 437.485
KKS-1 27 May 04:08:53 04:13:02 36° 262° (W) 04:17:11 437.445
Cosmos 2499 27 May 04:09:18 04:15:45 39° 270° (W) 04:22:13 435.465 / 435.565
PHONESAT 2.4 27 May 04:15:11 04:18:41 85° 336° (NNW) 04:22:10 2401.200-2431.200
AO-7 27 May 04:16:54 04:23:03 23° 93° (E) 04:29:35 29.400- 29.500
Oscar 19 27 May 04:19:45 04:22:59 16° 294° (WNW) 04:26:00 437.125/150
ITAMSAT 1 27 May 04:32:17 04:37:11 42° 289° (WNW) 04:42:03 435.822/435.867
SO-50 27 May 04:38:05 04:42:22 34° 308° (NW) 04:46:48 436.795
AIST 2 27 May 04:46:23 04:50:34 64° 58° (ENE) 04:54:40 435.215
HORYU 2 27 May 04:55:00 04:59:21 54° 100° (E) 05:03:41 437.375
BEESAT 2 27 May 04:57:19 05:00:38 24° 248° (WSW) 05:03:51 435.950
Gurwin Techsat 1B 27 May 05:10:56 05:14:50 20° 293° (WNW) 05:18:34 435.225
JAS-2 27 May 05:15:18 05:20:29 78° 101° (ESE) 05:25:54 435.910
STARS 27 May 05:16:14 05:17:44 11° 270° (W) 05:18:56 437.465
VERMONT LUNAR 27 May 05:25:08 05:28:10 39° 5° (N) 05:31:12 437.305
MOZHAYETS 4 27 May 05:37:37 05:42:06 56° 260° (W) 05:46:37
ISS 27 May 05:40:43 05:42:37 15° 25° (NNE) 05:44:35 145.825
CUBESAT XI-V 27 May 05:42:44 05:44:05 11° 66° (ENE) 05:45:44 437.345
PHONESAT 2.4 27 May 05:53:42 05:57:01 40° 357° (N) 06:00:19 2401.200-2431.200
AO-7 27 May 06:08:14 06:16:33 68° 290° (WNW) 06:24:48 29.400- 29.500
Cosmos 2491 27 May 06:33:02 06:40:56 37° 73° (ENE) 06:48:56 435.465 / 435.565
HORYU 2 27 May 06:33:33 06:35:35 13° 294° (WNW) 06:37:23 437.375
CUTE-I 27 May 06:45:58 06:49:50 21° 93° (E) 06:53:53 437.470
STRAND 1 27 May 06:59:45 07:04:17 35° 71° (ENE) 07:08:54 437.568
PRISM 27 May 07:01:15 07:04:57 35° 72° (ENE) 07:08:43 437.425
VERMONT LUNAR 27 May 07:02:20 07:05:33 84° 202° (SSW) 07:08:44 437.305
JAS-2 27 May 07:03:45 07:05:08 11° 297° (WNW) 07:06:11 435.910
Cubesat XI-IV 27 May 07:05:56 07:10:42 33° 96° (E) 07:15:32 437.490
ISS 27 May 07:16:08 07:19:24 78° 224° (SW) 07:22:40 145.825
CUBESAT XI-V 27 May 07:16:29 07:21:03 65° 260° (W) 07:25:38 437.345
M-CUBED/EXP-1 PRIME 27 May 07:19:47 07:23:46 40° 70° (ENE) 07:27:30 437.505
YUBILEINY 27 May 07:21:36 07:29:07 35° 87° (E) 07:36:49 435.215
AIST 1 27 May 07:24:38 07:25:59 11° 69° (ENE) 07:27:36
AUBIESAT-1 27 May 07:27:49 07:31:48 42° 70° (ENE) 07:35:32 437.475
PHONESAT 2.4 27 May 07:32:01 07:35:27 57° 14° (NNE) 07:38:52 2401.200-2431.200
AO-7 27 May 08:04:06 08:08:01 14° 308° (NW) 08:11:26 29.400- 29.500
CUTE-I 27 May 08:25:04 08:30:09 44° 289° (WNW) 08:35:11 437.470
Cosmos 2491 27 May 08:29:42 08:37:57 45° 271° (W) 08:46:01 435.465 / 435.565
RS-15 27 May 08:31:57 08:41:17 36° 108° (ESE) 08:51:01 29.354- 29.394
HO-68 27 May 08:32:57 08:35:09 12° 87° (E) 08:37:57 435.675
PRISM 27 May 08:38:07 08:40:35 15° 268° (W) 08:42:53 437.425
STRAND 1 27 May 08:39:27 08:43:35 24° 266° (W) 08:47:36 437.568
VERMONT LUNAR 27 May 08:40:27 08:42:26 15° 215° (SW) 08:44:20 437.305
Cubesat XI-IV 27 May 08:46:09 08:50:43 28° 291° (WNW) 08:55:11 437.490
BRITE-PL 27 May 08:52:00 08:57:07 36° 95° (E) 09:02:02 437.365/2234.400
GOMX 1 27 May 08:54:17 08:58:21 23° 91° (E) 09:02:22 467.674
M-CUBED/EXP-1 PRIME 27 May 08:56:12 08:58:42 15° 261° (W) 09:00:57 437.505
AIST 1 27 May 08:59:47 09:04:04 52° 266° (W) 09:08:19
AUBIESAT-1 27 May 09:04:30 09:06:43 13° 262° (W) 09:08:39 437.475
PHONESAT 2.4 27 May 09:10:16 09:13:29 36° 209° (SSW) 09:16:42 2401.200-2431.200
SEEDS 27 May 09:11:45 09:13:36 13° 90° (E) 09:15:41 437.485
YUBILEINY 27 May 09:17:24 09:25:46 46° 284° (WNW) 09:34:02 435.215
COMPASS 1 27 May 09:24:18 09:26:33 15° 91° (E) 09:28:59 437.405
CINEMA 3 27 May 09:31:24 09:33:44 14° 89° (E) 09:36:15 145.822/145.860
AAUSAT CUBESAT 2 27 May 09:35:53 09:38:34 17° 92° (E) 09:41:23 437.432
DOVE 4 27 May 09:53:17 09:58:17 57° 99° (E) 10:03:00 437.250
HO-68 27 May 10:16:50 10:24:01 85° 105° (ESE) 10:31:11 435.675
ANTELSAT 27 May 10:18:36 10:22:00 21° 69° (ENE) 10:25:30 437.575/2403.000
CANX-2 27 May 10:19:51 10:24:01 63° 284° (WNW) 10:28:10 2200.000
CUBEBUG 2 27 May 10:20:19 10:23:48 23° 93° (E) 10:27:18 437.445
Cosmos 2504 27 May 10:20:46 10:28:47 51° 92° (E) 10:36:22 435.465 / 435.565
ZACube-1 27 May 10:21:47 10:23:59 14° 90° (E) 10:26:23 437.345
CUTE 1.7 + AOD 2 27 May 10:23:21 10:27:32 64° 284° (WNW) 10:31:41 437.475
BRITE-PL 27 May 10:30:42 10:35:27 28° 291° (WNW) 10:39:56 437.365/2234.400
DUCHIFAT 1 27 May 10:30:53 10:31:08 10° 66° (ENE) 10:31:40 145.980
GOMX 1 27 May 10:31:40 10:36:38 39° 289° (WNW) 10:41:17 467.674
Oscar 11 27 May 10:32:16 10:36:13 35° 97° (E) 10:40:11 145.826/435.025
RS-15 27 May 10:42:30 10:53:12 58° 307° (NW) 11:04:09 29.354- 29.394
SEEDS 27 May 10:45:43 10:49:41 42° 286° (WNW) 10:53:36 437.485
PCSat 27 May 10:47:41 10:53:03 60° 60° (ENE) 10:58:24 145.827
TIGRISAT 27 May 10:50:09 10:54:34 43° 73° (ENE) 10:59:00 435.000
BUGSAT 1 27 May 10:51:27 10:52:54 12° 67° (ENE) 10:54:36 437.445
COMPASS 1 27 May 10:58:35 11:02:26 37° 286° (WNW) 11:06:14 437.405
